This is the latest recevied weather packets stored in our database for station/object KQ4UPF. If no packets are shown the sender has not sent any weather packets the latest 1 day(s).
| Time | Temp. | Humidity | Pressure | Rain* | Wind** | Luminosity | Snow |
|---|---|---|---|---|---|---|---|
| 1778044865 | 19.44° C | 76% | 1012.4 hPa | 0 mm | - | 0 W/m² | - |
| 1778044561 | 19.44° C | 74% | 1012.4 hPa | 0 mm | - | 0 W/m² | - |
| 1778044258 | 20° C | 75% | 1012.3 hPa | 0 mm | - | 0 W/m² | - |
| 1778043653 | 19.44° C | 76% | 1012.2 hPa | 0 mm | - | 0 W/m² | - |
| 1778043046 | 19.44° C | 76% | 1012.2 hPa | 0 mm | - | 0 W/m² | - |
| 1778041535 | 19.44° C | 75% | 1012.2 hPa | 0 mm | - | 0 W/m² | - |
| 1778041232 | 20° C | 75% | 1012.1 hPa | 0 mm | - | 0 W/m² | - |
| 1778040931 | 20° C | 76% | 1012.2 hPa | 0 mm | - | 0 W/m² | - |
| 1778040325 | 20° C | 74% | 1012.3 hPa | 0 mm | - | 0 W/m² | - |
| 1778040021 | 20° C | 77% | 1012.3 hPa | 0 mm | - | 0 W/m² | - |
| 1778039718 | 20° C | 77% | 1012.3 hPa | 0 mm | - | 0 W/m² | - |
| 1778039415 | 20° C | 74% | 1012.4 hPa | 0 mm | - | 0 W/m² | - |
| 1778039112 | 20° C | 73% | 1012.5 hPa | 0 mm | - | 0 W/m² | - |
| 1778038809 | 20° C | 73% | 1012.3 hPa | 0 mm | - | 0 W/m² | - |
| 1778037901 | 20° C | 76% | 1012.4 hPa | 0 mm | - | 0 W/m² | - |
| 1778037295 | 20° C | 75% | 1012.5 hPa | 0 mm | - | 0 W/m² | - |
| 1778036992 | 20° C | 76% | 1012.4 hPa | 0 mm | - | 0 W/m² | - |
| 1778036690 | 20° C | 75% | 1012.3 hPa | 0 mm | - | 0 W/m² | - |
| 1778036386 | 20° C | 74% | 1012.4 hPa | 0 mm | - | 0 W/m² | - |
| 1778036083 | 20° C | 74% | 1012.1 hPa | 0 mm | - | 0 W/m² | - |
| 1778035780 | 20° C | 75% | 1012.2 hPa | 0 mm | - | 0 W/m² | - |
| 1778035477 | 20° C | 73% | 1012.3 hPa | 0 mm | - | 0 W/m² | - |
| 1778035172 | 20° C | 74% | 1012.2 hPa | 0 mm | - | 0 W/m² | - |
| 1778034870 | 20° C | 74% | 1011.9 hPa | 0 mm | - | 0 W/m² | - |
| 1778034566 | 20° C | 73% | 1011.8 hPa | 0 mm | - | 0 W/m² | - |
* Rain latest hour (hover to see other rain measurements)
** Current wind speed in m/s (hover to see current wind gust speed)